Oakland, CA

1:35 PM PST on December 06, 2019 (GMT -0800)
Metro Oakland International

Weather History for KOAK - October, 2019

Change the Weather History Date:

Sunday, October 27, 2019

  Actual Average Record
Temperature  
Mean Temperature 60 °F 59 °F  
Max Temperature 72 °F 68 °F 82 °F (2003)
Min Temperature 47 °F 50 °F 42 °F (1971)
Degree Days  
Heating Degree Days 5 6  
Month to date heating degree days 98 123  
Since 1 July heating degree days 128 323  
Cooling Degree Days 0 0  
Month to date cooling degree days 31 12  
Year to date cooling degree days 395 137  
Growing Degree Days 10 (Base 50)    
Moisture  
Dew Point 23 °F    
Average Humidity 49    
Maximum Humidity 86    
Minimum Humidity 12    
Precipitation  
Precipitation 0.00 in 0.06 in 0.64 in (2016)
Month to date precipitation T 0.92  
Year to date precipitation 15.94 14.42  
Sea Level Pressure  
Sea Level Pressure 29.87 in    
Wind  
Wind Speed 13 mph (NNE)    
Max Wind Speed 33 mph    
Max Gust Speed 42 mph    
Visibility 9 miles    
Events      
T = Trace of Precipitation, MM = Missing Value Source: NWS Daily Summary

Daily Weather History Graph

Daily Weather History Graph

Search for Another Location

Airport or City:

Astronomy

Oct. 27, 2019 Rise Set
Actual Time 7:28 AM PDT 6:16 PM PDT
Civil Twilight 7:01 AM PDT 6:42 PM PDT
Nautical Twilight 6:31 AM PDT 7:13 PM PDT
Astronomical Twilight 6:00 AM PDT 7:44 PM PDT
Moon 6:45 AM PDT (10/27) 6:27 PM PDT (10/27)
Length of Visible Light 11h 40m
Length of Day
10h 47m
Waning Crescent, 0% of the Moon is Illuminated
Oct 27
Waning Crescent
Oct 27
New
Nov 4
First Quarter
Nov 12
Full
Nov 19
Last Quarter

Hourly Weather History & Observations

Time (PDT) Temp. Dew Point Humidity Pressure Visibility Wind Dir Wind Speed Gust Speed Precip Events Conditions
12:53 AM 55.0 °F 48.9 °F 80% 29.75 in 4.0 mi Calm Calm - N/A   Clear
1:53 AM 52.0 °F 46.9 °F 83% 29.76 in 4.0 mi Calm Calm - N/A   Clear
2:53 AM 51.1 °F 46.9 °F 86% 29.77 in 4.0 mi East 3.5 mph - N/A   Clear
3:53 AM 48.0 °F 44.1 °F 86% 29.77 in 5.0 mi Variable 3.5 mph - N/A   Clear
4:53 AM 59.0 °F 42.1 °F 53% 29.78 in 10.0 mi Variable 5.8 mph - N/A   Clear
5:53 AM 59.0 °F 21.0 °F 23% 29.79 in 10.0 mi Variable 5.8 mph 16.1 mph N/A   Clear
6:53 AM 59.0 °F 17.6 °F 20% 29.82 in 10.0 mi NW 6.9 mph - N/A   Scattered Clouds
7:53 AM 59.0 °F 16.0 °F 19% 29.85 in 10.0 mi North 12.7 mph 25.3 mph N/A   Scattered Clouds
8:53 AM 61.0 °F 17.1 °F 18% 29.85 in 10.0 mi North 17.3 mph 25.3 mph N/A   Clear
9:53 AM 62.6 °F 17.6 °F 18% 29.88 in 10.0 mi NNW 9.2 mph 26.5 mph N/A   Partly Cloudy
10:53 AM 66.2 °F 17.6 °F 15% 29.88 in 10.0 mi North 21.9 mph 29.9 mph N/A   Partly Cloudy
11:53 AM 68.0 °F 17.1 °F 14% 29.90 in 10.0 mi NNE 28.8 mph 41.4 mph N/A   Clear
12:53 PM 70.0 °F 17.1 °F 13% 29.90 in 10.0 mi North 16.1 mph 31.1 mph N/A   Clear
1:53 PM 71.1 °F 15.1 °F 12% 29.89 in 10.0 mi NNE 19.6 mph 35.7 mph N/A   Clear
2:53 PM 71.1 °F 16.0 °F 12% 29.88 in 10.0 mi NNE 25.3 mph 41.4 mph N/A   Clear
3:53 PM 71.6 °F 17.6 °F 13% 29.89 in 10.0 mi NNE 20.7 mph 40.3 mph N/A   Partly Cloudy
4:53 PM 69.8 °F 19.4 °F 15% 29.91 in 10.0 mi NNE 16.1 mph 32.2 mph N/A   Scattered Clouds
5:53 PM 66.2 °F 19.4 °F 17% 29.91 in 10.0 mi North 19.6 mph 28.8 mph N/A   Mostly Cloudy
6:53 PM 64.4 °F 17.6 °F 16% 29.92 in 10.0 mi North 13.8 mph 26.5 mph N/A   Scattered Clouds
7:53 PM 64.4 °F 17.6 °F 16% 29.93 in 10.0 mi NNE 12.7 mph 24.2 mph N/A   Scattered Clouds
8:53 PM 62.6 °F 15.8 °F 16% 29.95 in 10.0 mi Variable 6.9 mph - N/A   Partly Cloudy
9:53 PM 64.4 °F 14.0 °F 14% 29.97 in 10.0 mi Variable 5.8 mph - N/A   Partly Cloudy
10:53 PM 62.6 °F 15.8 °F 16% 30.01 in 10.0 mi North 9.2 mph - N/A   Partly Cloudy
11:53 PM 60.8 °F 12.2 °F 15% 30.01 in 10.0 mi NNE 16.1 mph 31.1 mph N/A   Partly Cloudy